Weather History for Greenville, MS

Change the Weather History Date:

Friday, June 21, 2013

  Actual Average Record
Temperature  
Mean Temperature 83 °F 80 °F  
Max Temperature 94 °F 90 °F 101 °F (1936)
Min Temperature 71 °F 70 °F 58 °F (1976)
Degree Days  
Heating Degree Days 0 0  
Month to date heating degree days 0 0  
Since 1 June heating degree days 0 0  
Since 1 July heating degree days 2695 2774  
Cooling Degree Days 18 15  
Month to date cooling degree days 294 277  
Year to date cooling degree days 577 599  
Since 1 June cooling degree days 294 277  
Growing Degree Days 32 (Base 50)    
Moisture  
Dew Point 69 °F    
Average Humidity 67    
Maximum Humidity 93    
Minimum Humidity 41    
Precipitation  
Precipitation 0.00 in 0.15 in 2.43 in (1979)
Month to date precipitation 1.25 2.56  
Year to date precipitation 26.21 26.82  
Sea Level Pressure  
Sea Level Pressure 30.11 in    
Wind  
Wind Speed 4 mph (ESE)    
Max Wind Speed 13 mph    
Max Gust Speed 21 mph    
Visibility 9 miles    
Events      
T = Trace of Precipitation, MM = Missing Value Source: NWS Daily Summary

Daily Weather History Graph

Daily Weather History Graph

Search for Another Location

Airport:

Trip Planner

Search our weather history database for the weather conditions in past years. The results will help you decide how hot, cold, wet, or windy it might be!

Date:

Astronomy

Jun. 21, 2013 Rise Set
Actual Time 5:54 AM CDT 8:17 PM CDT
Civil Twilight 5:25 AM CDT 8:46 PM CDT
Nautical Twilight 4:49 AM CDT 9:21 PM CDT
Astronomical Twilight 4:11 AM CDT 10:00 PM CDT
Moon 6:31 PM CDT (6/21) 4:06 AM CDT (6/21)
Length of Visible Light 15h 20m
Length of Day
14h 22m
Waxing Gibbous, 95% of the Moon is Illuminated
Jun 21
Waxing Gibbous
Jun 23
Full
Jun 29
Last Quarter
Jul 8
New
Jul 15
First Quarter

Hourly Weather History & Observations

Time (CDT) Temp. Heat Index Dew Point Humidity Pressure Visibility Wind Dir Wind Speed Gust Speed Precip Events Conditions
12:53 AM 73.0 °F - 68.0 °F 84% 30.11 in 7.0 mi ESE 4.6 mph - N/A   Clear
1:53 AM 73.9 °F - 69.1 °F 85% 30.10 in 6.0 mi Calm Calm - N/A   Haze
2:53 AM 73.0 °F - 70.0 °F 90% 30.10 in 6.0 mi Calm Calm - N/A   Clear
3:53 AM 73.0 °F - 70.0 °F 90% 30.09 in 5.0 mi Calm Calm - N/A   Clear
4:53 AM 72.0 °F - 69.1 °F 91% 30.09 in 7.0 mi Calm Calm - N/A   Clear
5:53 AM 71.1 °F - 69.1 °F 93% 30.11 in 4.0 mi Calm Calm - N/A   Clear
6:53 AM 73.0 °F - 70.0 °F 90% 30.12 in 4.0 mi Calm Calm - N/A   Clear
7:53 AM 79.0 °F - 72.0 °F 79% 30.12 in 9.0 mi SE 5.8 mph - N/A   Partly Cloudy
8:53 AM 82.0 °F 87.4 °F 73.0 °F 74% 30.14 in 10.0 mi ESE 6.9 mph - N/A   Clear
9:53 AM 84.9 °F 90.7 °F 72.0 °F 65% 30.15 in 10.0 mi SE 6.9 mph - N/A   Clear
10:53 AM 88.0 °F 93.8 °F 71.1 °F 57% 30.16 in 10.0 mi Variable 5.8 mph - N/A   Partly Cloudy
11:53 AM 90.0 °F 96.4 °F 71.1 °F 54% 30.15 in 10.0 mi Variable 3.5 mph - N/A   Mostly Cloudy
12:53 PM 91.0 °F 94.3 °F 66.9 °F 45% 30.14 in 10.0 mi Variable 6.9 mph - N/A   Scattered Clouds
1:53 PM 91.9 °F 94.5 °F 66.0 °F 42% 30.13 in 10.0 mi East 6.9 mph - N/A   Scattered Clouds
2:53 PM 91.0 °F 92.6 °F 64.0 °F 41% 30.12 in 10.0 mi SE 9.2 mph - N/A   Scattered Clouds
3:53 PM 91.9 °F 94.1 °F 64.9 °F 41% 30.10 in 10.0 mi ESE 4.6 mph - N/A   Partly Cloudy
4:53 PM 93.0 °F 95.9 °F 66.0 °F 41% 30.08 in 10.0 mi SE 10.4 mph - N/A   Scattered Clouds
5:53 PM 91.9 °F 95.4 °F 66.9 °F 44% 30.06 in 10.0 mi ESE 8.1 mph - N/A   Partly Cloudy
6:53 PM 90.0 °F 93.6 °F 68.0 °F 48% 30.06 in 10.0 mi SE 8.1 mph - N/A   Clear
7:53 PM 87.1 °F 90.6 °F 68.0 °F 53% 30.07 in 10.0 mi SE 6.9 mph - N/A   Clear
8:53 PM 82.0 °F 85.9 °F 70.0 °F 67% 30.07 in 10.0 mi ESE 3.5 mph - N/A   Clear
9:53 PM 79.0 °F - 70.0 °F 74% 30.09 in 10.0 mi Calm Calm - N/A   Clear
10:53 PM 79.0 °F - 71.1 °F 77% 30.09 in 10.0 mi ESE 3.5 mph - N/A   Clear
11:53 PM 75.9 °F - 71.1 °F 85% 30.09 in 10.0 mi ESE 4.6 mph - N/A   Clear